Regional Weather Roundup
Issued by NWS

Home | Current Version | Previous Version | Graphics & Text | Print | Product List | Glossary On
Versions: 1 2 3 4 5 6 7 8 9 10 11 12 13 14 15 16 17 18 19 20 21 22 23 24 25 26 27
000
ASUS45 KBOI 221810
RWRID

IDAHO REGIONAL WEATHER ROUNDUP
NATIONAL WEATHER SERVICE BOISE ID
1200 PM MDT WED MAR 22 2017

NOTE: "FAIR" INDICATES FEW OR NO CLOUDS BELOW 12000 FEET
WITH NO SIGNIFICANT WEATHER AND/OR OBSTRUCTIONS TO VISIBILITY

IDZ012-014-221900-
SOUTHWEST IDAHO


CITY           SKY/WX    TMP DP  RH WIND       PRES   REMARKS
BOISE          PTSUNNY   54  39  57 SE12      29.90F
CALDWELL       PTSUNNY   54  42  64 E7        29.91F
MOUNTAIN HOME  PTSUNNY   55  42  61 S6        29.92S
$$

IDZ016-017-221900-
SOUTHCENTRAL IDAHO


CITY           SKY/WX    TMP DP  RH WIND       PRES   REMARKS
BURLEY         CLOUDY    46  38  73 SE15      29.93F
JEROME         CLOUDY    50  38  63 E9        29.95S
TWIN FALLS     CLOUDY    49  39  68 S7        29.94S
$$

IDZ019>023-221900-
SOUTHEAST IDAHO


CITY           SKY/WX    TMP DP  RH WIND       PRES   REMARKS
IDAHO FALLS    CLOUDY    49  41  74 SW9       29.95F
POCATELLO      LGT RAIN  44  37  76 W21       30.00R
REXBURG        MOSUNNY   49  40  71 SW12      29.94F
$$

IDZ006-010-011-018-031-032-221900-
CENTRAL IDAHO MOUNTAINS


CITY           SKY/WX    TMP DP  RH WIND       PRES   REMARKS
MCCALL         SUNNY     37  34  89 CALM      29.89F
HAILEY         MOSUNNY   45  32  61 CALM      29.96F
STANLEY          N/A     32  30  92 N5        29.94F WCI  27
SALMON         CLOUDY    46  36  66 CALM      29.89F
CHALLIS        PTSUNNY   43  34  70 CALM      29.90F
$$

IDZ002-004-006-007-026-221900-
NORTHERN IDAHO


CITY           SKY/WX    TMP DP  RH WIND       PRES   REMARKS
LEWISTON       CLOUDY    48  45  89 N3        29.87F FOG
LOWELL           N/A     50  42  74 N3        29.92F
COEUR D`ALENE  MOSUNNY   49  43  80 S6        29.87S
MULLAN PASS    FOG       34  34 100 VRB5      29.85S VSB 1/4 WCI  30
$$




USA.gov is the U.S. government's official web portal to all federal, state and local government web resources and services.